Погода Усть-Уса

Погода Усть-Уса : погода сейчас, прогноз погоды и архив. Всё, что Вы хотите узнать о погоде Усть-Уса!

Хотите узнать прогноз погоды Усть-Уса? Тогда Вам сюда: Погода Усть-Уса

Поиск расширенной информации на нашем сайте:

Полезная информация: Брошюровочные машины выбрать и купить, продажа. Брошюровочная машина в каталоге.

Другие новости

Новости СМИ2

Главная страница сайта

Новости сайта

03.07.2017

Напоминаем, что на нашем специализированном сайте Метеоцентр.Азия вы можете получить высокодетализированные автоматические прогнозы погоды по пунктам России, СНГ и мира в авиационном формате (включающие направление и скорость ветра, видимость, явления погоды, количество и форму облачности, нижнюю и верхнюю границу облачности).

Рекомендуем: Актуальная информация дорнит ростов тут.

Погода Усть-Уса - сегодня

Время (UTC), дата Ветер
(°,м/с) 
Видим.   Явления Облачность Т
(°С)
Тd
(°С)
f(%) Тe
(°С)
Pmin
(гПа)
dP
(гПа)
Po
(мм)
O2
(г/м3)
Тmin Tmax R s Состояние
почвы
21 19.05.18 310 (СЗ) 20000 м    10/0 средняя 
[Ac und]
+3.9 +3.2 95 +3  1002.9  -0.1  745  295           
03 20.05.18 320 (СЗ) 4{11}  20000 м    10/0 средняя 
[Ac und]
-0.5 -2.4 87 -3  1006.1  1.8  747  302  -1.4    0.4  мокрый или
старый снег
50-90% 
06 20.05.18 330 (СЗ) 20000 м    10/6 330 м средняя 
[Frnb|Ac As]
-1.2 -3.5 84 -4  1008.3  2.2  749  304           
18 20.05.18 070 (В) 20000 м    3/3 1000 м 
[Sc]
-1 -3.7 82 1016.8  1.3  755  306           
21 20.05.18 120 (ЮВ) 20000 м    8/0 средняя 
[Ac trans]
-2 -3.7 88 -3  1017.2  0.4  756  307           
00 21.05.18 180 (Ю) 20000 м    10/0 средняя 
[Ac und]
-1.2 -3.1 87 -2  1018.5  1.3  757  307           
03 21.05.18 170 (Ю) 20000 м    10/0 средняя 
[Ac und]
+0.3 -2.6 81 +1  1019.2  0.7  757  305  -2.5      мокрый или
старый снег
50-90% 
06 21.05.18 200 (Ю) 20000 м    10/0 средняя 
[Ac und]
+3.7 -2.1 66 +3  1019.8  -0.8  758  301           
09 21.05.18 220 (ЮЗ) 20000 м    6/0 средняя, верхняя 
[Ac trans|Ci fib]
+8.3 +0.1 56 +8  1018  -1.6  756  296           
12 21.05.18 250 (З) 20000 м    10/0 средняя 
[Ac und]
+7.1 +0.4 62 +5  1017.5  -0.6  756  297           
00 22.05.18 300 (СЗ) 6-11{11}  20000 м  {дождь}  10/10 570 м кучево-дожд. 
[Cb calv]
+3.2 +0.6 83 1011.4  0.8  751  299           
03 22.05.18 290 (З) 7-13{14}  20000 м    10/10 660 м 
[Sc]
+3.3 -0.5 76 1013  1.6  753  300  +2.8    мокрый или
старый снег
10-40% 
09 22.05.18 300 (СЗ) 8-12{15}  20000 м    9/9 1080 м 
[Sc]
+5.3 -1.8 60 +2  1020.3  3.8  758  300           
15 22.05.18 280 (З) 4{12}  20000 м  {ливн. осадки}  10/10 500 м кучево-дожд. 
[Cb calv]
+5.1 -0.3 68 +3  1024.4  761  301    +6.5  0.0     
21 22.05.18 180 (Ю) 20000 м    3/0 средняя 
[Ac trans]
+3 -1 75 +2  1023.9  -0.8  761  303           
00 23.05.18 140 (ЮВ) 20000 м    9/0 средняя 
[Ac trans]
+2.2 -1.1 79 +2  1022.5  -1.5  760  304           
03 23.05.18 150 (ЮВ) 20000 м    9/0 средняя 
[Ac trans]
+4.2 -0.8 70 +3  1019.5  -2.8  757  301  +2.1      мокрый или
старый снег
10-40% 
06 23.05.18 140 (ЮВ) 20000 м    9/3 1000 м средняя 
[Sc|Ac trans]
+7 -0.7 58 +6  1014.3  -5.1  754  296           
03 24.05.18 300 (СЗ) 4{10}  20000 м    10/10 450 м кучево-дожд. 
[Cb calv]
+2.3 -0.1 84 1012.2  1.3  752  300  +1.6    0.0    мокрая 
06 24.05.18 290 (З) 20000 м    10/10 360 м 
[Frnb]
+2.6 +0 83 1013.7  1.5  753  301           
09 24.05.18 300 (СЗ) 20000 м  в посл. час ливневой дождь  9/3 300 м кучево-дожд., средняя 
[Cb calv|Ac trans]
+4.2 +0.5 77 +2  1015.2  1.6  754  299           
15 24.05.18 310 (СЗ) 6-10{11}  20000 м  {ливн. осадки}  10/10 570 м кучево-дожд. 
[Cb calv]
+0.4 -4.1 72 -3  1018.7  1.8  757  305    +4.8  0.4     
21 24.05.18 310 (СЗ) 20000 м    10/10 930 м 
[Sc]
-1.3 -4.1 81 -3  1018.9  757  307           
03 25.05.18 310 (СЗ) 20000 м    10/10 660 м 
[Sc]
-0.8 -4.9 74 -4  1020.3  0.5  758  307  -1.8        мокрая 
06 25.05.18 310 (СЗ) 20000 м  слаб. ливневой снег  10/10 330 м кучево-дожд. 
[Cb calv]
-0.2 -2.1 87 -2  1021.4  1.1  759  306           
Время (UTC), дата Ветер
(°,м/с) 
Видим.   Явления Облачность Т
(°С)
Тd
(°С)
f(%) Тe
(°С)
Pmin
(гПа)
dP
(гПа)
Po
(мм)
O2
(г/м3)
Тmin Tmax R s Состояние
почвы

Для получения пояснительной информации подведите курсор к названию столбца.

ПОГОДА Усть-Уса - архив

Всё, что Вы хотите узнать о погоде Усть-Уса - удобно и подробно!

Выберите нужную дату (начиная с 1 января 2015* года) и нажмите кнопку "Найти".
Будут отображены архивные сводки погоды по пункту Усть-Уса, начиная с указанной даты.


Отображать данные в формате CSV (для использования в таблицах Excel)


Внимание! Наш архив погоды предназначен исключительно для личного некоммерческого использования в познавательных целях. Если Вам необходимы официальные справки о состоянии погоды (для производственных, юридических, коммерческих и т.п. целей), обращайтесь в органы Росгидромета.

*Примечание: данная дата относится к архиву по метеостанциям СССР (Россия, СНГ, Балтия).
Архив по метеостанциям Зарубежной Европы и Азии (кроме Китая) хранится 10 дней, по другим регионам земного шара (Китай, Африка, Америка, Австралия, Океания) - 1 день.

Усть-Уса - район местоположения метеостанции


Название, широта, долгота, высота метеостанции:
Усть-Уса 66°ш. 56.9°д. 78 м над ур. моря [Российская Федерация]

Дополнительная информация

В oтличие oт бoльшинства пoгoдных сайтoв мы публикуем пoдрoбную метеoинфoрмацию в детальнoм прoфессиoнальнoм фoрмате.

Характеристики температуры и влажнoсти вoздуха измеряются на высoте 2 м в тени вдали oт зданий и деревьев.
Скoрoсть ветра измеряется на высoте 10 м (на урoвне рoста челoвека скoрoсть ветра ниже в 1.5-2 раза). Если метеoстанция нахoдится в гoрoде или в лесу, тo скoрoсть ветра занижена на 2-4 м/с пo сравнению с oткрытым местoм. Скoрoсть ветра над акватoриями крупных рек и oзёр, а также на вершинах хoлмoв на 2-5 м/с выше, чем в oбычных услoвиях.
Атмoсфернoе давление в разных тoчках местнoсти мoжет значительнo oтличаться oт давления на метеoстанции, в зависимoсти oт услoвий рельефа (при пoдъёме на 10 м давление пoнижается примернo на 1 мм рт.ст.).